Simultaneous Nadir Overpasses (SNOs) Predictions

Prediction of SNOs between METOP-A and NPP Satellite Orbit:

Table of predicted SNOs for the next 14.0 days since TLE Epoch: 3/1/2015
Index Date (METOP-A) Time (METOP-A) Lat,Lon (METOP-A) SZA (METOP-A ) Date (NPP) Time (NPP) Lat,Lon (NPP) SZA (NPP ) Distance(km) Time Diff (sec)
1 03/14/2015 00:20:05 73.87, 169.31 76.68 03/14/2015 00:18:59 73.92, 166.16 76.90 97.28 66
2 03/14/2015 01:10:49 -73.78, -23.58 103.42 03/14/2015 01:09:41 -73.81, -26.24 103.25 82.57 68
3 03/14/2015 02:01:32 73.60, 143.34 76.41 03/14/2015 02:00:22 73.58, 141.59 76.49 54.88 70
4 03/14/2015 02:52:16 -73.51, -49.55 103.69 03/14/2015 02:51:05 -73.52, -50.94 103.60 43.98 71
5 03/14/2015 03:43:00 73.28, 117.27 76.10 03/14/2015 03:41:46 73.29, 116.88 76.14 12.64 74
6 03/14/2015 04:33:44 -73.19, -75.60 104.00 03/14/2015 04:32:29 -73.22, -75.66 103.95 4.27 75
7 03/14/2015 05:24:23 73.21, 91.77 76.01 03/14/2015 05:23:14 73.20, 91.70 76.02 2.33 69
8 03/14/2015 06:15:06 -73.17,-100.99 104.05 03/14/2015 06:13:58 -73.18,-100.94 104.02 2.08 68
9 03/14/2015 07:05:45 73.19, 66.38 75.96 03/14/2015 07:04:43 73.16, 66.42 75.94 3.36 62
10 03/14/2015 07:56:27 -73.20,-126.26 104.05 03/14/2015 07:55:28 -73.19,-126.34 104.04 2.48 59
11 03/14/2015 08:47:07 73.17, 41.00 75.91 03/14/2015 08:46:13 73.17, 41.03 75.92 0.93 54
12 03/14/2015 09:37:49 -73.18,-151.65 104.10 03/14/2015 09:36:57 -73.15,-151.62 104.11 3.22 52
13 03/14/2015 10:28:29 73.14, 15.61 75.87 03/14/2015 10:27:43 73.18, 15.63 75.91 3.53 46
14 03/14/2015 11:19:11 -73.16,-177.04 104.14 03/14/2015 11:18:27 -73.16,-177.01 104.13 0.72 44
15 03/14/2015 12:09:50 73.17, -9.66 75.86 03/14/2015 12:09:13 73.18, -9.76 75.89 3.31 37
16 03/14/2015 13:00:33 -73.14, 157.58 104.19 03/14/2015 12:59:57 -73.17, 157.59 104.15 3.51 36
17 03/14/2015 13:51:12 73.15, -35.05 75.82 03/14/2015 13:50:42 73.14, -35.04 75.81 1.14 30
18 03/14/2015 14:41:54 -73.17, 132.30 104.19 03/14/2015 14:41:27 -73.18, 132.20 104.17 3.51 27
19 03/14/2015 15:32:34 73.13, -60.44 75.77 03/14/2015 15:32:12 73.15, -60.44 75.79 2.20 22
20 03/14/2015 16:23:16 -73.14, 106.92 104.24 03/14/2015 16:22:56 -73.13, 106.92 104.24 1.13 20
21 03/14/2015 17:13:56 73.11, -85.82 75.72 03/14/2015 17:13:41 73.11, -85.72 75.72 3.26 15
22 03/14/2015 18:04:38 -73.12, 81.53 104.28 03/14/2015 18:04:26 -73.14, 81.52 104.26 2.17 12
23 03/14/2015 18:55:17 73.14,-111.10 75.72 03/14/2015 18:55:11 73.12,-111.11 75.70 2.44 6
24 03/14/2015 19:46:00 -73.10, 56.15 104.33 03/14/2015 19:45:55 -73.10, 56.24 104.34 2.99 5
25 03/14/2015 20:36:39 73.12,-136.48 75.67 03/14/2015 20:36:41 73.13,-136.51 75.68 1.20 2
26 03/14/2015 21:27:21 -73.13, 30.87 104.33 03/14/2015 21:27:25 -73.11, 30.85 104.35 2.57 4
27 03/14/2015 22:18:01 73.10,-161.87 75.63 03/14/2015 22:18:10 73.08,-161.79 75.61
